Location: ??????????
(54.4061°N, 22.6114°E)
Time: 21:52:30
(UTC+00:00)

STARLINK-34 - Pass Details

Date: 23 October 2019
Orbit: 548 x 552 km, 53.0° (Epoch: 12 November)

Event Time Altitude Azimuth Distance (km) Brightness Sun altitude
Rises 15:51:23 0° 263° (W) 2,717 9.9 -6.1°
Reaches altitude 10° 15:53:37 10° 262° (W) 1,824 8.1 -6.4°
Maximum altitude 15:57:45 74° 178° (S) 576 3.7 -7.0°
Drops below altitude 10° 16:01:54 10° 93° (E) 1,827 5.6 -7.6°
Enters shadow 16:02:04 - 93° (E) 1,893 5.7 -7.6°
